Hourly Weather Otor

Today, 24 July, Saturday

Time Temperature Precipitation Wind Pressure Humidity
00:00 +19°C° 0 mm 2 mps 748 mmHg 69%
01:00 +19°C° 0 mm 2 mps 748 mmHg 71%
02:00 +18°C° 0 mm 2 mps 748 mmHg 77%
03:00 +18°C° 0 mm 2 mps 748 mmHg 79%
04:00 +18°C° 0 mm 2 mps 748 mmHg 82%
05:00 +17°C° 0 mm 2 mps 748 mmHg 84%
06:00 +18°C° 0 mm 2 mps 748 mmHg 81%
07:00 +19°C° 0 mm 2 mps 748 mmHg 79%
08:00 +20°C° 0 mm 2 mps 748 mmHg 76%
09:00 +21°C° 0.1 mm 2 mps 748 mmHg 70%
10:00 +23°C° 0.1 mm 2 mps 749 mmHg 64%
11:00 +25°C° 0.1 mm 2 mps 749 mmHg 58%
12:00 +25°C° 0.1 mm 3 mps 749 mmHg 56%
13:00 +25°C° 0.1 mm 3 mps 749 mmHg 53%
14:00 +26°C° 0.1 mm 3 mps 749 mmHg 51%
15:00 +26°C° 0 mm 3 mps 749 mmHg 50%
16:00 +26°C° 0 mm 2 mps 749 mmHg 49%
17:00 +26°C° 0 mm 2 mps 749 mmHg 48%
18:00 +25°C° 0 mm 2 mps 749 mmHg 53%
19:00 +23°C° 0 mm 2 mps 750 mmHg 58%
20:00 +22°C° 0 mm 1 mps 750 mmHg 63%
21:00 +21°C° 0 mm 1 mps 750 mmHg 66%
22:00 +21°C° 0 mm 1 mps 750 mmHg 68%
23:00 +20°C° 0 mm 1 mps 750 mmHg 70%

Tomorrow, 25 July, Sunday

Time Temperature Precipitation Wind Pressure Humidity
00:00 +20°C° 0 mm 1 mps 751 mmHg 71%
01:00 +20°C° 0 mm 1 mps 751 mmHg 72%
02:00 +20°C° 0 mm 1 mps 751 mmHg 73%
03:00 +20°C° 0 mm 1 mps 751 mmHg 74%
04:00 +20°C° 0 mm 1 mps 751 mmHg 74%
05:00 +20°C° 0 mm 1 mps 751 mmHg 75%
06:00 +21°C° 0 mm 1 mps 752 mmHg 74%
07:00 +21°C° 0 mm 1 mps 752 mmHg 73%
08:00 +22°C° 0 mm 1 mps 752 mmHg 72%
09:00 +23°C° 0.4 mm 2 mps 752 mmHg 68%
10:00 +24°C° 0.4 mm 2 mps 752 mmHg 64%
11:00 +25°C° 0.4 mm 2 mps 752 mmHg 61%
12:00 +26°C° 0.2 mm 2 mps 753 mmHg 57%
13:00 +26°C° 0.2 mm 2 mps 753 mmHg 54%
14:00 +27°C° 0.2 mm 2 mps 753 mmHg 50%
15:00 +27°C° 0 mm 2 mps 753 mmHg 51%
16:00 +27°C° 0 mm 2 mps 753 mmHg 51%
17:00 +27°C° 0 mm 2 mps 752 mmHg 52%
18:00 +25°C° 0.1 mm 1 mps 753 mmHg 59%
19:00 +23°C° 0.1 mm 1 mps 753 mmHg 65%
20:00 +21°C° 0.1 mm 1 mps 753 mmHg 71%
21:00 +21°C° 0.1 mm 1 mps 753 mmHg 73%
22:00 +20°C° 0.1 mm 1 mps 753 mmHg 75%
23:00 +19°C° 0.1 mm 1 mps 754 mmHg 77%

Day after tomorrow, 26 July, Monday

Time Temperature Precipitation Wind Pressure Humidity
00:00 +19°C° 0 mm 1 mps 754 mmHg 79%
01:00 +18°C° 0 mm 1 mps 754 mmHg 82%
02:00 +18°C° 0 mm 1 mps 754 mmHg 84%
03:00 +17°C° 0 mm 2 mps 754 mmHg 85%
04:00 +17°C° 0 mm 2 mps 754 mmHg 85%
05:00 +17°C° 0 mm 2 mps 754 mmHg 86%
06:00 +19°C° 0 mm 2 mps 754 mmHg 80%
07:00 +21°C° 0 mm 2 mps 754 mmHg 73%
08:00 +24°C° 0 mm 2 mps 754 mmHg 67%
09:00 +25°C° 0 mm 2 mps 754 mmHg 61%
10:00 +26°C° 0 mm 2 mps 754 mmHg 56%
11:00 +28°C° 0 mm 2 mps 754 mmHg 51%
12:00 +28°C° 0 mm 2 mps 754 mmHg 49%
13:00 +29°C° 0 mm 2 mps 754 mmHg 47%
14:00 +29°C° 0 mm 2 mps 754 mmHg 45%
15:00 +27°C° 0.1 mm 2 mps 754 mmHg 52%
16:00 +26°C° 0.1 mm 2 mps 754 mmHg 58%
17:00 +24°C° 0.1 mm 2 mps 754 mmHg 65%
18:00 +24°C° 0 mm 2 mps 754 mmHg 67%
19:00 +23°C° 0 mm 2 mps 754 mmHg 69%
20:00 +21°C° 0 mm 2 mps 754 mmHg 71%
21:00 +20°C° 0 mm 2 mps 754 mmHg 73%
22:00 +19°C° 0 mm 2 mps 754 mmHg 75%
23:00 +19°C° 0 mm 2 mps 754 mmHg 78%

27 July, Tuesday

Time Temperature Precipitation Wind Pressure Humidity
00:00 +18°C° 0 mm 2 mps 754 mmHg 79%
01:00 +18°C° 0 mm 2 mps 754 mmHg 80%
02:00 +18°C° 0 mm 2 mps 754 mmHg 82%
03:00 +17°C° 0 mm 2 mps 754 mmHg 83%
04:00 +17°C° 0 mm 2 mps 754 mmHg 84%
05:00 +17°C° 0 mm 2 mps 754 mmHg 85%
06:00 +19°C° 0 mm 3 mps 754 mmHg 77%
07:00 +21°C° 0 mm 3 mps 754 mmHg 69%
08:00 +24°C° 0 mm 3 mps 754 mmHg 61%
09:00 +26°C° 0 mm 3 mps 754 mmHg 56%
10:00 +27°C° 0 mm 4 mps 754 mmHg 51%
11:00 +29°C° 0 mm 4 mps 753 mmHg 45%
12:00 +29°C° 0 mm 4 mps 753 mmHg 43%
13:00 +30°C° 0 mm 5 mps 753 mmHg 40%
14:00 +32°C° 0 mm 5 mps 753 mmHg 37%
15:00 +30°C° 0 mm 4 mps 752 mmHg 40%
16:00 +30°C° 0 mm 4 mps 752 mmHg 43%
17:00 +29°C° 0 mm 3 mps 752 mmHg 45%
18:00 +27°C° 0 mm 3 mps 752 mmHg 50%
19:00 +26°C° 0 mm 3 mps 751 mmHg 56%
20:00 +24°C° 0 mm 3 mps 751 mmHg 61%
21:00 +22°C° 0 mm 3 mps 751 mmHg 60%
22:00 +22°C° 0 mm 3 mps 751 mmHg 59%
23:00 +21°C° 0 mm 3 mps 751 mmHg 59%

28 July, Wednesday

Time Temperature Precipitation Wind Pressure Humidity
00:00 +21°C° 0 mm 3 mps 751 mmHg 61%
01:00 +20°C° 0 mm 3 mps 750 mmHg 63%
02:00 +20°C° 0 mm 3 mps 750 mmHg 65%
03:00 +20°C° 0 mm 4 mps 750 mmHg 66%
04:00 +20°C° 0 mm 4 mps 750 mmHg 67%
05:00 +21°C° 0 mm 5 mps 750 mmHg 69%
06:00 +20°C° 0.5 mm 4 mps 750 mmHg 76%
07:00 +20°C° 0.5 mm 4 mps 749 mmHg 84%
08:00 +19°C° 0.5 mm 4 mps 749 mmHg 92%
09:00 +19°C° 1.7 mm 4 mps 749 mmHg 92%
10:00 +20°C° 1.7 mm 4 mps 749 mmHg 91%
11:00 +20°C° 1.7 mm 5 mps 749 mmHg 91%
12:00 +21°C° 0.1 mm 5 mps 748 mmHg 86%
13:00 +22°C° 0.1 mm 5 mps 748 mmHg 82%
14:00 +23°C° 0.1 mm 5 mps 748 mmHg 77%
15:00 +23°C° 0.1 mm 5 mps 748 mmHg 76%
16:00 +23°C° 0.1 mm 4 mps 747 mmHg 76%
17:00 +24°C° 0.1 mm 3 mps 747 mmHg 76%
18:00 +22°C° 0 mm 3 mps 747 mmHg 80%
19:00 +21°C° 0 mm 2 mps 747 mmHg 84%
20:00 +20°C° 0 mm 2 mps 746 mmHg 87%
21:00 +20°C° 0 mm 1 mps 746 mmHg 89%
22:00 +20°C° 0 mm 1 mps 746 mmHg 91%
23:00 +19°C° 0 mm 1 mps 746 mmHg 93%

29 July, Thursday

Time Temperature Precipitation Wind Pressure Humidity
00:00 +19°C° 0 mm 1 mps 746 mmHg 93%
01:00 +19°C° 0 mm 1 mps 746 mmHg 94%
02:00 +18°C° 0 mm 2 mps 746 mmHg 94%
03:00 +18°C° 0 mm 2 mps 746 mmHg 95%
04:00 +18°C° 0 mm 2 mps 746 mmHg 95%
05:00 +18°C° 0 mm 2 mps 746 mmHg 96%
06:00 +20°C° 0 mm 2 mps 746 mmHg 88%
07:00 +23°C° 0 mm 2 mps 746 mmHg 79%
08:00 +25°C° 0 mm 2 mps 746 mmHg 71%
09:00 +26°C° 0 mm 3 mps 747 mmHg 63%
10:00 +28°C° 0 mm 3 mps 747 mmHg 55%
11:00 +30°C° 0 mm 3 mps 747 mmHg 48%
12:00 +30°C° 0 mm 3 mps 747 mmHg 46%
13:00 +31°C° 0 mm 3 mps 746 mmHg 44%
14:00 +31°C° 0 mm 3 mps 746 mmHg 42%
15:00 +30°C° 0 mm 3 mps 746 mmHg 47%
16:00 +29°C° 0 mm 3 mps 746 mmHg 52%
17:00 +29°C° 0 mm 2 mps 746 mmHg 56%
18:00 +27°C° 0.2 mm 2 mps 746 mmHg 64%
19:00 +25°C° 0.2 mm 3 mps 746 mmHg 71%
20:00 +22°C° 0.2 mm 3 mps 747 mmHg 78%
21:00 +21°C° 0.2 mm 3 mps 747 mmHg 82%
22:00 +21°C° 0.2 mm 3 mps 747 mmHg 86%
23:00 +20°C° 0.2 mm 3 mps 747 mmHg 90%
Show more